Location: Pornichet
(47.2613°N, 2.3364°W)
Time: 04:11:50
(UTC+01:00)

ISS - Visible Passes

Search period start: 22 March 2023 00:00
Search period end: 01 April 2023 01:00
Orbit: 414 x 423 km, 51.6° (Epoch: 22 March)

Date Brightness Start Highest point End Pass type
(mag) Time Alt. Az. Time Alt. Az. Time Alt. Az.
22 Mar -3.1 20:15:01 10° W 20:18:18 51° NNW 20:21:36 10° ENE visible
22 Mar -1.9 21:52:19 10° WNW 21:54:34 30° NW 21:54:34 30° NW visible
23 Mar -2.6 21:04:24 10° WNW 21:07:33 37° N 21:08:42 27° NE visible
23 Mar -0.3 22:41:22 10° WNW 22:41:39 12° WNW 22:41:39 12° WNW visible
24 Mar -2.6 20:16:25 10° WNW 20:19:35 38° N 20:22:46 10° ENE visible
24 Mar -2.1 21:53:31 10° WNW 21:55:44 34° NW 21:55:44 34° NW visible
25 Mar -2.9 21:05:36 10° WNW 21:08:48 41° N 21:09:46 32° NE visible
25 Mar -0.4 22:42:25 10° WNW 22:42:42 12° WNW 22:42:42 12° WNW visible
26 Mar -2.7 21:17:37 10° WNW 21:20:47 38° N 21:23:46 11° ENE visible
26 Mar -2.3 22:54:29 10° WNW 22:56:42 38° WNW 22:56:42 38° WNW visible
27 Mar -3.5 22:06:33 10° WNW 22:09:52 61° NNE 22:10:41 44° ENE visible
27 Mar -0.4 23:43:31 10° W 23:43:37 11° W 23:43:37 11° W visible
28 Mar -3.2 21:18:34 10° WNW 21:21:50 48° NNE 21:24:40 13° E visible
28 Mar -2.2 22:55:24 10° WNW 22:57:36 33° W 22:57:36 33° W visible
29 Mar -3.7 22:07:20 10° WNW 22:10:41 71° SSW 22:11:35 44° SE visible
30 Mar -3.8 21:19:18 10° WNW 21:22:40 80° NNE 21:25:34 13° ESE visible
30 Mar -1.5 22:56:34 10° W 22:58:30 19° WSW 22:58:30 19° WSW visible
31 Mar -2.4 22:08:12 10° W 22:11:12 31° SW 22:12:32 23° S visible
